time_stamp(utc),avg(mph),gust(mph),direction(deg),12m_air_temp(f),sonic_u(cm/s),sonic_v(cm/s),sonic_w(cm/s),pressure,2m_air_temp(f),pyranometer(W/m^2)
"2016-10-23 00:02:20+00",24.4,26.4,,51.2,-1015,420,67,1005.5,50.6,0
"2016-10-23 00:07:20+00",22.1,25.1,,51,-917,385,56,1005.58,50.5,0
"2016-10-23 00:12:20+00",21.2,26.2,,51.4,-870,386,49,1005.56,50.6,0
"2016-10-23 00:17:20+00",24.3,29.3,,51.4,-1025,402,81,1005.59,50.8,0
"2016-10-23 00:22:20+00",23.8,26.8,,51.3,-992,418,83,1005.68,50.7,0
"2016-10-23 00:27:20+00",25.9,27.9,,51.4,-1081,424,83,1005.69,50.7,0
"2016-10-23 00:32:20+00",23.9,27.9,,51.5,-1067,202,97,1005.73,51,0
"2016-10-23 00:37:20+00",25.4,30.4,,51.1,-1097,349,79,1005.73,50.9,0
"2016-10-23 00:42:20+00",25.3,29.3,,51.1,-1084,366,75,1005.86,50.8,0
"2016-10-23 00:47:20+00",25.6,28.6,,50.8,-1072,469,78,1005.98,50.4,0
"2016-10-23 00:52:20+00",23.4,28.4,,50.9,-1011,341,111,1006.11,50.4,0
"2016-10-23 00:57:20+00",26.8,29.8,,51,-1150,395,91,1006.15,50.3,0
"2016-10-23 01:02:20+00",25.9,28.9,,51.1,-1124,360,82,1006.16,50.5,0
"2016-10-23 01:07:20+00",29.8,35.8,,51.2,-1186,608,50,1006.34,50.4,0
"2016-10-23 01:12:20+00",26.4,31.4,,51.2,-1102,464,77,1006.37,50.5,0
"2016-10-23 01:17:20+00",29.8,34.8,,51.1,-1168,665,93,1006.48,50.4,0
"2016-10-23 01:22:20+00",29.7,34.7,,50.9,-1143,707,51,1006.54,50.2,0
"2016-10-23 01:27:20+00",25.3,30.3,,50.8,-942,640,92,1006.6,50.1,0
"2016-10-23 01:32:20+00",21.9,25.9,,50.6,-830,504,72,1006.64,49.9,0
"2016-10-23 01:37:20+00",22.8,25.8,,50.5,-891,510,59,1006.72,49.7,0
"2016-10-23 01:42:20+00",27.7,29.7,,50.5,-1063,642,54,1006.85,49.6,0
"2016-10-23 01:47:20+00",20.4,24.4,,50.5,-771,506,76,1007.01,49.5,0
"2016-10-23 01:52:20+00",17.7,22.7,,50.3,-666,360,107,1007.03,49.5,0
"2016-10-23 01:57:20+00",23.1,26.1,,50.6,-896,508,63,1007.11,49.6,0
"2016-10-23 02:02:20+00",22.5,25.5,,50.5,-954,413,50,1007.16,49.5,0
"2016-10-23 02:07:20+00",22.9,26.9,,50.4,-931,426,32,1007.31,49.4,0
"2016-10-23 02:12:20+00",21.6,24.6,,50.4,-891,410,63,1007.25,49.4,0
"2016-10-23 02:17:20+00",20.5,22.5,,50.2,-856,322,48,1007.3,49.3,0
"2016-10-23 02:22:20+00",22.4,25.4,,50.3,-912,421,78,1007.35,49.4,0
"2016-10-23 02:27:20+00",22.1,26.1,,50.2,-894,437,84,1007.35,49.3,0
"2016-10-23 02:32:20+00",27.1,31.1,,50.3,-1063,609,68,1007.32,49.3,0
"2016-10-23 02:37:20+00",23.6,26.6,,50.3,-954,457,49,1007.41,49.4,0
"2016-10-23 02:42:20+00",21.3,25.3,,50.2,-842,444,60,1007.47,49.3,0
"2016-10-23 02:47:20+00",22.2,27.2,,50.2,-962,284,64,1007.43,49.3,0
"2016-10-23 02:52:20+00",22.2,26.2,,50.1,-952,333,70,1007.48,49.4,0
"2016-10-23 02:57:20+00",22.2,26.2,,49.9,-947,341,77,1007.5,49.3,0
"2016-10-23 03:02:20+00",23.4,27.4,,49.9,-1012,291,67,1007.53,49.3,0
"2016-10-23 03:07:20+00",18.6,22.6,,49.8,-809,192,105,1007.57,49.2,0
"2016-10-23 03:12:20+00",21.0,24.0,,49.8,-916,243,60,1007.58,49.2,0
"2016-10-23 03:17:20+00",23.6,30.6,,49.9,-1068,294,80,1007.54,49.3,0
"2016-10-23 03:22:20+00",24.0,27.0,,50,-1043,268,74,1007.6,49.5,0
"2016-10-23 03:27:20+00",25.6,31.6,,50.1,-1073,415,59,1007.52,49.5,0
"2016-10-23 03:32:20+00",24.1,26.1,,49.9,-1045,305,72,1007.44,49.4,0
"2016-10-23 03:37:20+00",18.7,21.7,,49.7,-817,190,83,1007.58,49.4,0
"2016-10-23 03:42:20+00",20.6,22.6,,49.3,-921,151,65,1007.62,49.2,0
"2016-10-23 03:47:20+00",18.0,21.0,,49.3,-785,98,41,1007.56,49.2,0
"2016-10-23 03:52:20+00",21.8,27.8,,49.3,-960,165,40,1007.62,49.1,0
"2016-10-23 03:57:20+00",21.4,25.4,,49.2,-935,219,54,1007.55,49.1,0
"2016-10-23 04:02:20+00",21.3,25.3,,49.7,-951,219,91,1007.55,49.3,0
"2016-10-23 04:07:20+00",22.7,27.7,,49.5,-959,340,71,1007.49,49.2,0
"2016-10-23 04:12:20+00",21.0,25.0,,49.5,-929,193,71,1007.46,49.4,0
"2016-10-23 04:17:20+00",21.8,26.8,,49.3,-967,211,57,1007.54,49.3,0
"2016-10-23 04:22:20+00",21.4,24.4,,49.2,-957,131,68,1007.55,49.3,0
"2016-10-23 04:27:20+00",20.5,24.5,,49.1,-903,122,65,1007.58,49.1,0
"2016-10-23 04:32:20+00",20.3,24.3,,49.1,-912,153,72,1007.56,49.1,0
"2016-10-23 04:37:20+00",24.0,30.0,,49.2,-1050,222,69,1007.61,49.2,0
"2016-10-23 04:42:20+00",24.5,27.5,,49.4,-1071,222,46,1007.6,49.3,0
"2016-10-23 04:47:20+00",23.2,27.2,,49.5,-1024,245,92,1007.66,49.5,0
"2016-10-23 04:52:20+00",21.8,25.8,,49.6,-948,278,81,1007.72,49.6,0
"2016-10-23 04:57:20+00",23.4,27.4,,49.5,-1012,279,60,1007.74,49.7,0
"2016-10-23 05:02:20+00",21.0,24.0,,49.3,-913,249,61,1007.78,49.5,0
"2016-10-23 05:07:20+00",21.0,25.0,,49,-924,190,57,1007.76,49.2,0
"2016-10-23 05:12:20+00",21.3,27.3,,49,-927,225,65,1007.78,49.1,0
"2016-10-23 05:17:20+00",21.0,25.0,,48.8,-908,215,46,1007.76,49.1,0
"2016-10-23 05:22:20+00",21.9,24.9,,48.8,-989,148,79,1007.85,49,0
"2016-10-23 05:27:20+00",19.8,23.8,,49.2,-875,176,93,1007.91,49.2,0
"2016-10-23 05:32:20+00",20.5,24.5,,49.2,-910,191,84,1007.9,49.3,0
"2016-10-23 05:37:20+00",20.7,24.7,,49,-898,235,102,1008.01,49.3,0
"2016-10-23 05:42:20+00",22.1,25.1,,49,-972,230,83,1008.05,49.2,0
"2016-10-23 05:47:20+00",22.3,25.3,,48.9,-980,232,66,1008.1,49.1,0
"2016-10-23 05:52:20+00",24.0,29.0,,48.9,-1055,219,87,1008.08,49.1,0
"2016-10-23 05:57:20+00",26.3,30.3,,49.3,-1159,271,90,1007.99,49.3,0
"2016-10-23 06:02:20+00",26.4,29.4,,49.3,-1147,269,72,1007.95,49.5,0
"2016-10-23 06:07:20+00",26.9,32.9,,49.2,-1149,398,85,1008.05,49.4,0
"2016-10-23 06:12:20+00",26.5,30.5,,49,-1154,350,74,1008.11,49.3,0
"2016-10-23 06:17:20+00",23.9,26.9,,48.9,-1056,270,71,1008.17,49.2,0
"2016-10-23 06:22:20+00",22.2,27.2,,48.9,-984,143,67,1008.17,49.2,0
"2016-10-23 06:27:20+00",20.0,24.0,,49.2,-880,180,99,1008.28,49.4,0
"2016-10-23 06:32:20+00",23.4,26.4,,49,-1031,145,35,1008.27,49.3,0
"2016-10-23 06:37:20+00",22.5,27.5,,49,-1016,161,72,1008.33,49.3,0
"2016-10-23 06:42:20+00",23.7,28.7,,49,-1059,170,91,1008.29,49.3,0
"2016-10-23 06:47:20+00",21.6,25.6,,49,-949,191,82,1008.34,49.3,0
"2016-10-23 06:52:20+00",26.3,28.3,,49.1,-1161,232,72,1008.36,49.3,0
"2016-10-23 06:57:20+00",25.8,29.8,,49.1,-1100,349,63,1008.3,49.3,0
"2016-10-23 07:02:20+00",26.4,30.4,,49.3,-1149,312,78,1008.36,49.4,0
"2016-10-23 07:07:20+00",26.4,29.4,,49.1,-1132,371,68,1008.45,49.3,0
"2016-10-23 07:12:20+00",20.8,28.8,,49.2,-913,203,113,1008.43,49.4,0
"2016-10-23 07:17:20+00",25.0,27.0,,49,-1102,240,69,1008.5,49.3,0
"2016-10-23 07:22:20+00",24.1,26.1,,48.9,-1090,188,93,1008.53,49.2,0
"2016-10-23 07:27:20+00",25.7,29.7,,49.1,-1104,372,94,1008.69,49.2,0
"2016-10-23 07:32:20+00",25.9,30.9,,49,-1143,264,88,1008.69,49.2,0
"2016-10-23 07:37:20+00",21.8,24.8,,49.1,-960,197,92,1008.78,49.2,0
"2016-10-23 07:42:20+00",25.2,28.2,,49,-1072,377,85,1008.85,49.1,0
"2016-10-23 07:47:20+00",28.4,33.4,,48.9,-1230,336,71,1008.88,49,0
"2016-10-23 07:52:20+00",23.3,28.3,,49.1,-1016,319,114,1009,49.1,0
"2016-10-23 07:57:20+00",27.0,31.0,,49,-1183,265,80,1009.01,49,0
"2016-10-23 08:02:20+00",28.0,33.0,,48.9,-1227,258,67,1009.08,49.1,0
"2016-10-23 08:07:20+00",26.7,28.7,,48.9,-1163,293,87,1009.19,49,0
"2016-10-23 08:12:20+00",23.6,25.6,,49,-1042,249,72,1009.24,49.1,0
"2016-10-23 08:17:20+00",24.4,27.4,,48.9,-1060,287,78,1009.35,49,0
"2016-10-23 08:22:20+00",24.5,29.5,,48.9,-1048,343,89,1009.36,48.9,0
"2016-10-23 08:27:20+00",27.8,30.8,,49,-1184,409,64,1009.4,49,0
"2016-10-23 08:32:20+00",25.1,29.1,,49,-1082,317,68,1009.54,49,0
"2016-10-23 08:37:20+00",21.8,24.8,,48.8,-920,340,87,1009.56,48.8,0
"2016-10-23 08:42:20+00",23.6,28.6,,49,-1027,282,90,1009.55,48.8,0
"2016-10-23 08:47:20+00",25.1,29.1,,48.9,-1089,334,78,1009.69,48.8,0
"2016-10-23 08:52:20+00",23.9,26.9,,48.8,-1050,290,67,1009.8,48.8,0
"2016-10-23 08:57:20+00",23.2,29.2,,48.8,-1017,216,58,1009.9,48.7,0
"2016-10-23 09:02:20+00",24.7,28.7,,48.7,-1101,211,57,1009.98,48.7,0
"2016-10-23 09:07:20+00",21.8,26.8,,48.7,-953,253,82,1009.94,48.6,0
"2016-10-23 09:12:20+00",25.1,28.1,,48.7,-1106,288,69,1009.96,48.6,0
"2016-10-23 09:17:20+00",27.5,30.5,,48.6,-1193,335,61,1009.94,48.6,0
"2016-10-23 09:22:20+00",25.0,28.0,,48.8,-1037,461,62,1009.99,48.5,0
"2016-10-23 09:27:20+00",28.4,32.4,,49,-1170,512,69,1010.07,48.5,0
"2016-10-23 09:32:20+00",25.7,29.7,,49.1,-1114,369,92,1010.07,48.6,0
"2016-10-23 09:37:20+00",24.3,27.3,,49.1,-1017,424,61,1010.05,48.7,0
"2016-10-23 09:42:20+00",26.2,29.2,,48.9,-1125,361,72,1009.94,48.7,0
"2016-10-23 09:47:20+00",27.4,30.4,,48.9,-1184,348,70,1009.97,48.6,0
"2016-10-23 09:52:20+00",22.2,24.2,,48.8,-917,379,91,1010.13,48.6,0
"2016-10-23 09:57:20+00",21.6,25.6,,48.6,-963,186,73,1010.16,48.4,0
"2016-10-23 10:02:20+00",20.3,23.3,,48.4,-903,139,56,1010.18,48.2,0
"2016-10-23 10:07:20+00",18.9,21.9,,48.4,-839,102,70,1010.34,48.2,0
"2016-10-23 10:12:20+00",18.2,20.2,,48.3,-809,145,46,1010.39,48.1,0
"2016-10-23 10:17:20+00",16.9,19.9,,47.6,-755,11,47,1010.51,47.6,0
"2016-10-23 10:22:20+00",18.8,21.8,,47.4,-821,-13,27,1010.55,47.3,0
"2016-10-23 10:27:20+00",17.8,21.8,,47.1,-775,-36,50,1010.55,47,0
"2016-10-23 10:32:20+00",15.9,19.9,,46.9,-690,-52,41,1010.55,46.8,0
"2016-10-23 10:37:20+00",19.1,22.1,,47,-830,-9,40,1010.63,46.8,0
"2016-10-23 10:42:20+00",18.2,22.2,,46.8,-800,-18,53,1010.73,46.6,0
"2016-10-23 10:47:20+00",17.9,20.9,,46.6,-788,-33,40,1010.76,46.4,0
"2016-10-23 10:52:20+00",19.4,25.4,,46.4,-827,-167,38,1010.75,46.3,0
"2016-10-23 10:57:20+00",20.1,23.1,,46.4,-865,-107,26,1010.85,46.2,0
"2016-10-23 11:02:20+00",18.9,22.9,,46.4,-822,-83,55,1010.94,46.1,0
"2016-10-23 11:07:20+00",17.9,22.9,,46.6,-786,-22,46,1011.06,46.2,0
"2016-10-23 11:12:20+00",18.8,20.8,,46.6,-816,-42,45,1011.18,46.3,0
"2016-10-23 11:17:20+00",15.8,18.8,,46.5,-691,-52,65,1011.28,46.3,0
"2016-10-23 11:22:20+00",16.9,20.9,,46.6,-732,-126,40,1011.35,46.3,0
"2016-10-23 11:27:20+00",17.1,19.1,,46.6,-727,-141,16,1011.48,46.2,0
"2016-10-23 11:32:20+00",16.4,19.4,,46.5,-692,-184,30,1011.57,46.2,0
"2016-10-23 11:37:20+00",15.0,19.0,,46.4,-636,-158,33,1011.7,46,0
"2016-10-23 11:42:20+00",13.7,16.7,,46.3,-586,-98,36,1011.6,46,0
"2016-10-23 11:47:20+00",17.8,21.8,,46.6,-755,-186,26,1011.65,46.1,0.1
"2016-10-23 11:52:20+00",17.4,20.4,,46.7,-736,-171,20,1011.65,46.3,15.1
"2016-10-23 11:57:20+00",15.2,19.2,,46.9,-635,-158,46,1011.78,46.6,21.4
"2016-10-23 12:02:20+00",14.1,17.1,,46.9,-602,-150,54,1011.82,47,30.9
"2016-10-23 12:07:20+00",16.9,18.9,,47.1,-720,-190,29,1011.8,47.4,39.4
"2016-10-23 12:12:20+00",19.6,22.6,,47.3,-839,-215,45,1011.89,47.9,48.2
"2016-10-23 12:17:20+00",19.7,22.7,,47.5,-840,-157,23,1011.96,48.1,58.6
"2016-10-23 12:22:20+00",20.6,24.6,,47.6,-880,-128,38,1011.87,48.3,68.1
"2016-10-23 12:27:20+00",16.9,20.9,,47.8,-724,-167,40,1011.96,48.5,79.6
"2016-10-23 12:32:20+00",16.5,18.5,,47.9,-694,-263,16,1012.02,48.8,87.3
"2016-10-23 12:37:20+00",19.2,21.2,,48.3,-819,-148,75,1012.06,49.2,100
"2016-10-23 12:42:20+00",23.0,25.0,,48.6,-987,-200,38,1012.05,49.3,108
"2016-10-23 12:47:20+00",20.1,24.1,,48.8,-856,-139,65,1012.14,49.6,120.2
"2016-10-23 12:52:20+00",19.2,25.2,,49,-826,-225,64,1012.14,49.9,130
"2016-10-23 12:57:20+00",17.5,20.5,,49.1,-737,-173,50,1012.33,50.2,140.1
"2016-10-23 13:02:20+00",20.8,24.8,,49.1,-887,-168,40,1012.4,50.4,151.2
"2016-10-23 13:07:20+00",21.9,26.9,,49.3,-917,-254,45,1012.41,50.6,158.5
"2016-10-23 13:12:20+00",18.8,21.8,,49.7,-804,-131,61,1012.48,50.8,167.5
"2016-10-23 13:17:20+00",20.0,25.0,,49.7,-869,-66,30,1012.58,50.8,177.4
"2016-10-23 13:22:20+00",16.6,18.6,,50.1,-724,-61,102,1012.61,51.1,183
"2016-10-23 13:27:20+00",18.4,21.4,,50.2,-801,-70,43,1012.52,51.3,192.9
"2016-10-23 13:32:20+00",18.4,21.4,,50.5,-801,-71,28,1012.51,51.6,202.4
"2016-10-23 13:37:20+00",16.0,18.0,,51.1,-701,-18,66,1012.59,52.1,208.3
"2016-10-23 13:42:20+00",20.7,22.7,,51.2,-918,157,44,1012.4,52.4,218.7
"2016-10-23 13:47:20+00",18.4,21.4,,51.7,-808,81,80,1012.51,52.6,220.4
"2016-10-23 13:52:20+00",19.5,21.5,,51.9,-862,68,38,1012.48,53,233.2
"2016-10-23 13:57:20+00",18.9,23.9,,52.5,-835,177,69,1012.52,53.4,237
"2016-10-23 14:02:20+00",20.5,23.5,,52.7,-917,77,55,1012.49,53.7,245.5
"2016-10-23 14:07:20+00",18.1,22.1,,53.1,-794,97,59,1012.45,54,250.8
"2016-10-23 14:12:20+00",22.0,26.0,,53.3,-989,111,84,1012.49,54.3,258.5
"2016-10-23 14:17:20+00",19.4,25.4,,53.6,-861,119,68,1012.48,54.6,263.4
"2016-10-23 14:22:20+00",25.8,29.8,,53.6,-1144,144,58,1012.36,54.8,270
"2016-10-23 14:27:20+00",19.2,22.2,,54,-841,201,86,1012.56,55,198.9
"2016-10-23 14:32:20+00",22.4,24.4,,54,-962,324,66,1012.57,55.1,246.7
"2016-10-23 14:37:20+00",25.2,33.2,,54.2,-1090,270,60,1012.42,55.3,286.5
"2016-10-23 14:42:20+00",24.5,28.5,,54.4,-1013,429,62,1012.51,55.5,290.9
"2016-10-23 14:47:20+00",24.5,31.5,,54.7,-1069,347,98,1012.48,55.8,294
"2016-10-23 14:52:20+00",27.9,32.9,,54.6,-1176,447,79,1012.29,55.9,299.7
"2016-10-23 14:57:20+00",25.2,28.2,,54.8,-1031,470,63,1012.48,56,303.7
"2016-10-23 15:02:20+00",20.6,23.6,,55.4,-836,368,75,1012.56,56.5,309.2
"2016-10-23 15:07:20+00",25.2,29.2,,55.3,-1058,446,80,1012.42,56.7,312.6
"2016-10-23 15:12:20+00",26.5,29.5,,55.5,-1111,426,68,1012.45,56.7,315.8
"2016-10-23 15:17:20+00",20.4,25.4,,56,-855,354,110,1012.59,57.2,324.6
"2016-10-23 15:22:20+00",24.5,29.5,,55.6,-958,560,66,1012.54,56.9,325.5
"2016-10-23 15:27:20+00",26.0,30.0,,55.9,-1003,600,70,1012.62,57.3,329.7
"2016-10-23 15:32:20+00",26.4,29.4,,55.8,-1000,633,60,1012.66,57.2,335.7
"2016-10-23 15:37:20+00",28.2,32.2,,56,-1115,590,61,1012.65,57.3,338.9
"2016-10-23 15:42:20+00",28.3,34.3,,56.2,-1119,605,80,1012.7,57.4,342.9
"2016-10-23 15:47:20+00",26.9,30.9,,56.3,-1068,587,88,1012.65,57.6,327.7
"2016-10-23 15:52:20+00",27.9,29.9,,56.2,-1084,631,48,1012.56,57.6,349.4
"2016-10-23 15:57:20+00",29.4,33.4,,56.4,-1215,524,68,1012.51,57.8,309.1
"2016-10-23 16:02:20+00",27.6,30.6,,56.6,-1136,510,106,1012.52,58,350.1
"2016-10-23 16:07:20+00",24.4,28.4,,56.7,-988,479,61,1012.52,58,352.9
"2016-10-23 16:12:20+00",29.0,32.0,,56.9,-1137,667,85,1012.34,58.2,357.7
"2016-10-23 16:17:20+00",30.8,33.8,,57.1,-1085,856,98,1012.35,58.3,357.6
"2016-10-23 16:22:20+00",31.6,35.6,,57.4,-1306,609,88,1012.26,58.5,363.7
"2016-10-23 16:27:20+00",31.1,34.1,,57.5,-1227,646,78,1012.25,58.7,363.8
"2016-10-23 16:32:20+00",25.2,29.2,,57.7,-1068,407,90,1012.11,58.9,365.2
"2016-10-23 16:37:20+00",30.6,34.6,,57.4,-1275,519,75,1012.08,58.9,363.3
"2016-10-23 16:42:20+00",20.2,27.2,,57.6,-809,438,67,1012.29,58.8,362.4
"2016-10-23 16:47:20+00",22.3,25.3,,57.8,-880,496,53,1012.39,59.2,364.3
"2016-10-23 16:52:20+00",21.6,24.6,,57.7,-872,397,53,1012.4,59.3,239.6
"2016-10-23 16:57:20+00",22.5,25.5,,57.9,-918,441,71,1012.44,59.3,414.7
"2016-10-23 17:02:20+00",21.8,25.8,,57.6,-923,355,55,1012.33,58.9,315
"2016-10-23 17:07:20+00",21.2,25.2,,57.9,-907,350,66,1012.43,59.4,415.6
"2016-10-23 17:12:20+00",20.4,22.4,,58,-904,179,62,1012.25,59.9,392.7
"2016-10-23 17:17:20+00",22.9,26.9,,58.3,-1008,281,64,1012.16,59.8,387.7
"2016-10-23 17:22:20+00",20.8,24.8,,58.3,-855,367,59,1012.11,59.7,378.8
"2016-10-23 17:27:20+00",18.6,20.6,,58.4,-792,285,67,1012.08,59.8,262.7
"2016-10-23 17:32:20+00",23.0,26.0,,58.5,-996,306,48,1012.02,59.9,347.7
"2016-10-23 17:37:20+00",24.7,27.7,,58.8,-1086,232,74,1011.92,60.1,356.8
"2016-10-23 17:42:20+00",22.0,26.0,,58.8,-967,244,71,1011.88,60.2,345.8
"2016-10-23 17:47:20+00",17.4,20.4,,58.9,-732,278,75,1011.94,60.1,141.7
"2016-10-23 17:52:20+00",20.4,22.4,,59.2,-902,188,60,1011.99,60.5,337.4
"2016-10-23 17:57:20+00",21.9,24.9,,59.2,-943,302,52,1011.77,60.7,336.3
"2016-10-23 18:02:20+00",21.8,24.8,,59.4,-945,291,55,1011.72,60.9,333.2
"2016-10-23 18:07:20+00",19.3,22.3,,59.8,-787,376,99,1011.73,61,335.1
"2016-10-23 18:12:20+00",19.1,21.1,,59.7,-832,242,68,1011.62,61.1,229.2
"2016-10-23 18:17:20+00",21.1,25.1,,60,-907,299,68,1011.58,61.1,322.5
"2016-10-23 18:22:20+00",21.8,27.8,,60.4,-950,276,76,1011.45,61.4,326.7
"2016-10-23 18:27:20+00",19.9,23.9,,60.8,-888,159,101,1011.46,61.7,312.3
"2016-10-23 18:32:20+00",17.3,21.3,,60.7,-723,302,64,1011.49,61.9,309.9
"2016-10-23 18:37:20+00",18.8,21.8,,60.8,-845,57,75,1011.44,62,193.9
"2016-10-23 18:42:20+00",18.8,21.8,,60.6,-839,69,41,1011.55,61.9,322.1
"2016-10-23 18:47:20+00",20.6,22.6,,60.6,-889,-114,30,1011.53,62,296.6
"2016-10-23 18:52:20+00",16.3,18.3,,60.4,-710,-62,23,1011.58,61.6,142.2
"2016-10-23 18:57:20+00",15.3,18.3,,60.5,-672,-15,33,1011.59,61.4,29.9
"2016-10-23 19:02:20+00",12.2,16.2,,60.4,-538,-41,26,1011.67,61,22.5
"2016-10-23 19:07:20+00",11.9,14.9,,60.5,-530,-10,33,1011.74,61.1,229.6
"2016-10-23 19:12:20+00",12.8,14.8,,61,-558,46,10,1011.72,61.2,47.2
"2016-10-23 19:17:20+00",16.3,19.3,,61.5,-707,152,60,1011.64,61.8,47.2
"2016-10-23 19:22:20+00",16.8,18.8,,61.3,-737,209,41,1011.68,61.4,25.8
"2016-10-23 19:27:20+00",15.5,18.5,,61.7,-664,235,43,1011.64,61.9,249.6
"2016-10-23 19:32:20+00",15.8,17.8,,61.9,-688,176,32,1011.63,62.8,93.5
"2016-10-23 19:37:20+00",15.3,17.3,,62.2,-654,208,42,1011.55,63.2,122.1
"2016-10-23 19:42:20+00",17.0,19.0,,62.4,-661,363,71,1011.48,63.4,223.5
"2016-10-23 19:47:20+00",14.3,16.3,,62.6,-619,126,46,1011.46,63.8,211.8
"2016-10-23 19:52:20+00",20.7,25.7,,62.6,-924,30,38,1011.39,63.7,190.5
"2016-10-23 19:57:20+00",17.0,22.0,,62.4,-742,-88,50,1011.42,63.4,188
"2016-10-23 20:02:20+00",18.7,21.7,,62.3,-826,1,28,1011.45,63.3,180.4
"2016-10-23 20:07:20+00",19.0,23.0,,62.4,-847,58,52,1011.45,63.4,168.3
"2016-10-23 20:12:20+00",18.5,23.5,,62.7,-827,23,50,1011.41,63.3,170.6
"2016-10-23 20:17:20+00",21.0,25.0,,62.8,-937,100,42,1011.4,63.4,153.3
"2016-10-23 20:22:20+00",19.1,21.1,,62.9,-847,81,40,1011.31,63.4,140.9
"2016-10-23 20:27:20+00",20.2,23.2,,63,-910,39,68,1011.47,63.4,132.2
"2016-10-23 20:32:20+00",20.0,22.0,,62.8,-886,49,51,1011.52,63.3,122.7
"2016-10-23 20:37:20+00",27.2,31.2,,62.8,-1202,-40,34,1011.41,63.1,109.6
"2016-10-23 20:42:20+00",17.7,20.7,,62.7,-783,128,63,1011.55,63.1,98
"2016-10-23 20:47:20+00",17.7,20.7,,62.8,-787,112,59,1011.58,63.1,88.2
"2016-10-23 20:52:20+00",19.6,24.6,,62.8,-877,103,61,1011.56,63.1,79.7
"2016-10-23 20:57:20+00",17.1,19.1,,62.8,-763,56,45,1011.68,63,72.1
"2016-10-23 21:02:20+00",16.1,19.1,,62.7,-717,-42,57,1011.77,62.7,37.4
"2016-10-23 21:07:20+00",13.6,17.6,,62.5,-603,-30,24,1011.89,62.5,48.9
"2016-10-23 21:12:20+00",13.2,16.2,,62.2,-559,-106,18,1012.01,62.3,33.8
"2016-10-23 21:17:20+00",13.3,16.3,,61.9,-562,-148,21,1012.11,62,0.3
"2016-10-23 21:22:20+00",16.3,19.3,,62.3,-711,153,41,1012.09,61.8,10.4
"2016-10-23 21:27:20+00",13.7,16.7,,62.3,-599,55,43,1012.13,61.8,0
"2016-10-23 21:32:20+00",14.1,16.1,,62.1,-622,69,37,1012.15,61.7,0
"2016-10-23 21:37:20+00",13.3,14.3,,61.8,-587,20,27,1012.2,61.5,0
"2016-10-23 21:42:20+00",12.2,14.2,,61.6,-528,-77,9,1012.28,61.3,0
"2016-10-23 21:47:20+00",10.0,11.0,,61.4,-424,-50,22,1012.34,61,0
"2016-10-23 21:52:20+00",9.3,10.3,,60.9,-390,-124,8,1012.41,60.6,0
"2016-10-23 21:57:20+00",11.2,12.2,,60.6,-466,-143,22,1012.55,60.1,0
"2016-10-23 22:02:20+00",10.4,12.4,,60.4,-449,-184,21,1012.66,59.6,0
"2016-10-23 22:07:20+00",11.0,13.0,,60.1,-473,-234,14,1012.78,59.2,0
"2016-10-23 22:12:20+00",10.4,11.4,,60.1,-450,-217,10,1012.86,58.9,0
"2016-10-23 22:17:20+00",10.1,12.1,,59.8,-415,-217,6,1012.96,58.5,0
"2016-10-23 22:22:20+00",10.3,12.3,,59.6,-436,-213,4,1012.97,58.2,0
"2016-10-23 22:27:20+00",11.1,12.1,,59.5,-491,-200,6,1013.02,57.9,0
"2016-10-23 22:32:20+00",9.9,10.9,,59.4,-441,-175,15,1013.08,57.7,0
"2016-10-23 22:37:20+00",10.7,11.7,,59.2,-471,-207,14,1013.19,57.5,0
"2016-10-23 22:42:20+00",11.1,13.1,,59,-490,-208,18,1013.25,57.4,0
"2016-10-23 22:47:20+00",11.9,13.9,,58.9,-515,-248,17,1013.25,57.3,0
"2016-10-23 22:52:20+00",12.2,13.2,,59,-537,-237,11,1013.25,57.3,0
"2016-10-23 22:57:20+00",11.2,13.2,,58.8,-477,-246,13,1013.31,57.3,0
"2016-10-23 23:02:20+00",10.8,11.8,,58.9,-476,-208,17,1013.36,57.2,0
"2016-10-23 23:07:20+00",10.4,12.4,,58.7,-437,-216,13,1013.45,57.1,0
"2016-10-23 23:12:20+00",10.4,11.4,,58.4,-393,-246,16,1013.52,57,0
"2016-10-23 23:17:20+00",10.1,11.1,,58.2,-357,-257,15,1013.48,56.8,0
"2016-10-23 23:22:20+00",11.3,12.3,,58.4,-395,-293,8,1013.44,56.7,0
"2016-10-23 23:27:20+00",11.6,12.6,,58.5,-383,-317,3,1013.56,56.7,0
"2016-10-23 23:32:20+00",10.3,11.3,,58.3,-332,-305,1,1013.54,56.7,0
"2016-10-23 23:37:20+00",11.3,13.3,,58,-376,-304,3,1013.59,56.6,0
"2016-10-23 23:42:20+00",10.8,12.8,,58,-378,-278,13,1013.64,56.4,0
"2016-10-23 23:47:20+00",10.4,11.4,,58,-367,-269,10,1013.61,56.3,0
"2016-10-23 23:52:20+00",10.8,11.8,,57.9,-358,-303,1,1013.59,56.3,0
"2016-10-23 23:57:20+00",12.6,14.6,,57.9,-425,-338,-6,1013.6,56.3,0
